User: anonymous   Login
Location: Unspecified
(0.0000°N, 0.0000°E)
Time: 03:14:03
(UTC+00:00)
Language:

STARLINK-34894 - Orbit

View from above orbital plane
View from above orbital plane
View from above satellite
View from above satellite

Ground track
Ground track

The orbit is defined by the following mean orbital elements,

1 65753U          26145.55747830 +.00000000 +00000-0 +85029-3 0 00003
2 65753  53.1590 335.7569 0001701  80.7275 279.3918 15.30224405    02
Epoch (UTC): 25 May 2026 13:22:46
Eccentricity: 0.0001701
inclination: 53.1590°
perigee height: 474 km
apogee height: 476 km
right ascension of ascending node: 335.7569°
argument of perigee: 80.7275°
revolutions per day: 15.30224405
mean anomaly at epoch: 279.3918°

The dashed part of the orbit path shows where the satellite is in the earth's shadow,  

DLR